Weather History for Springfield, VT

Change the Weather History Date:

Wednesday, December 14, 2011

  Actual Average Record
Temperature  
Mean Temperature 35 °F 26 °F  
Max Temperature 40 °F 35 °F 53 °F (2006)
Min Temperature 29 °F 18 °F -7 °F (2005)
Degree Days  
Heating Degree Days 30 39  
Month to date heating degree days 429 510  
Since 1 July heating degree days 1667 2153  
Moisture  
Dew Point 27 °F    
Average Humidity 78    
Maximum Humidity 92    
Minimum Humidity 64    
Precipitation  
Precipitation 0.00 in 0.10 in 0.49 in (2002)
Month to date precipitation 1.69 1.58  
Year to date precipitation 52.72 42.16  
Sea Level Pressure  
Sea Level Pressure 30.37 in    
Wind  
Wind Speed 0 mph (South)    
Max Wind Speed 5 mph    
Max Gust Speed 6 mph    
Visibility 8 miles    
Events      
T = Trace of Precipitation, MM = Missing Value Source: NWS Daily Summary

Daily Weather History Graph

Daily Weather History Graph

Search for Another Location

Airport:

Trip Planner

Search our weather history database for the weather conditions in past years. The results will help you decide how hot, cold, wet, or windy it might be!

Date:

Astronomy

Dec. 14, 2011 Rise Set
Actual Time 7:14 AM EST 4:14 PM EST
Civil Twilight 6:42 AM EST 4:47 PM EST
Nautical Twilight 6:06 AM EST 5:23 PM EST
Astronomical Twilight 5:31 AM EST 5:57 PM EST
Moon 8:37 PM EST (12/14) 9:53 AM EST (12/14)
Length of Visible Light 10h 05m
Length of Day
9h 00m
Waning Gibbous, 83% of the Moon is Illuminated
Dec 14
Waning Gibbous
Dec 17
Last Quarter
Dec 24
New
Jan 1
First Quarter
Jan 9
Full

Hourly Weather History & Observations

Time (EST) Temp. Windchill Dew Point Humidity Pressure Visibility Wind Dir Wind Speed Gust Speed Precip Events Conditions
12:54 AM 30.0 °F - 25.0 °F 82% 30.38 in 8.0 mi Calm Calm - N/A   Overcast
1:54 AM 30.0 °F - 25.0 °F 82% 30.37 in 9.0 mi Calm Calm - N/A   Overcast
2:27 AM 28.4 °F - 24.8 °F 86% 30.36 in 9.0 mi Calm Calm - N/A   Overcast
2:54 AM 30.0 °F - 25.0 °F 82% 30.38 in 7.0 mi Calm Calm - N/A   Overcast
3:34 AM 30.2 °F - 26.6 °F 86% 30.35 in 9.0 mi Calm Calm - N/A   Overcast
4:54 AM 30.9 °F - 25.0 °F 79% 30.38 in 8.0 mi Calm Calm - N/A   Overcast
5:54 AM 30.9 °F - 26.1 °F 82% 30.40 in 9.0 mi Calm Calm - N/A   Overcast
6:54 AM 30.0 °F - 26.1 °F 85% 30.40 in 9.0 mi Calm Calm - N/A   Overcast
7:54 AM 30.9 °F - 26.1 °F 82% 30.43 in 5.0 mi Calm Calm - N/A   Haze
8:54 AM 33.1 °F - 27.0 °F 78% 30.43 in 9.0 mi Calm Calm - N/A   Overcast
9:04 AM 33.8 °F - 26.6 °F 75% 30.41 in 10.0 mi Calm Calm - N/A   Overcast
9:54 AM 34.0 °F - 27.0 °F 75% 30.43 in 9.0 mi Calm Calm - N/A   Overcast
10:32 AM 35.6 °F - 26.6 °F 70% 30.41 in 10.0 mi Calm Calm - N/A   Overcast
10:54 AM 35.1 °F - 27.0 °F 72% 30.42 in 10.0 mi Calm Calm - N/A   Overcast
11:54 AM 37.9 °F - 27.0 °F 65% 30.40 in 10.0 mi Calm Calm - N/A   Overcast
1:54 PM 39.9 °F 37.8 °F 28.0 °F 63% 30.38 in 10.0 mi South 3.5 mph - N/A   Mostly Cloudy
2:54 PM 39.9 °F - 28.9 °F 65% 30.37 in 10.0 mi Calm Calm - N/A   Overcast
4:54 PM 36.0 °F - 28.9 °F 76% 30.38 in 10.0 mi Calm Calm - N/A   Overcast
5:54 PM 34.0 °F - 28.9 °F 82% 30.38 in 10.0 mi Calm Calm - N/A   Overcast
6:54 PM 33.1 °F - 28.9 °F 85% 30.38 in 9.0 mi Calm Calm - N/A   Overcast
7:30 PM 30.2 °F - 28.4 °F 93% 30.34 in 8.0 mi Calm Calm - N/A   Mostly Cloudy
7:54 PM 30.9 °F - 28.0 °F 89% 30.37 in 8.0 mi Calm Calm - N/A   Overcast
8:32 PM 30.2 °F - 26.6 °F 86% 30.34 in 6.0 mi Calm Calm - N/A   Mostly Cloudy
8:39 PM 30.2 °F - 28.4 °F 93% 30.34 in 6.0 mi Calm Calm - N/A   Mostly Cloudy
8:54 PM 30.9 °F - 28.0 °F 89% 30.35 in 6.0 mi Calm Calm - N/A   Overcast
9:32 PM 30.2 °F - 28.4 °F 93% 30.32 in 7.0 mi Calm Calm - N/A   Overcast
9:54 PM 30.9 °F - 28.0 °F 89% 30.34 in 7.0 mi Calm Calm - N/A   Overcast
10:54 PM 32.0 °F - 28.0 °F 85% 30.31 in 8.0 mi Calm Calm - N/A   Mostly Cloudy
11:54 PM 35.1 °F - 28.9 °F 78% 30.30 in 10.0 mi Calm Calm - N/A   Overcast